Regional Weather Roundup
Issued by NWS San Diego, CA

Home | Current Version | Previous Version | Text Only | Print | Product List | Glossary On
Versions: 1 2 3 4 5 6 7 8 9 10 11 12 13 14 15 16 17 18 19 20 21 22 23 24 25 26 27 28 29 30 31 32 33 34 35 36 37 38 39 40 41 42 43 44 45 46 47 48 49
000
ASUS46 KSGX 300711
RWRSGX

SAN DIEGO HOURLY WEATHER ROUNDUP
NATIONAL WEATHER SERVICE SAN DIEGO CA
1200 AM PDT SAT JUL 30 2016

NOTE: "FAIR" INDICATES FEW OR NO CLOUDS BELOW 12,000 FEET WITH NO
SIGNIFICANT WEATHER AND/OR OBSTRUCTIONS TO VISIBILITY.

CAZ042-043-060-061-PZZ750-775-300800-

GREATER SAN DIEGO AREA

CITY           SKY/WX    TMP DP  RH WIND       PRES   REMARKS
LINDBERGH FLD  PTCLDY    68  64  87 CALM      29.84S
POINT LOMA       N/A     68  64  85 S3          N/A
NATIONAL CITY    N/A     71  66  85 CALM      29.84S
CHULA VISTA      N/A     69  66  90 W2        29.76S
IMPERIAL BEACH CLEAR     70  63  78 CALM      29.83S
BROWN FIELD    CLEAR     69  63  81 NW3       29.83F
MIRAMAR MCAS   PTCLDY    70  62  76 W3        29.83F
MONTGOMERY FLD CLEAR     70  62  76 CALM      29.84S

$$

NORTH SAN DIEGO COUNTY

CITY           SKY/WX    TMP DP  RH WIND       PRES   REMARKS
CAMP PENDLETON CLEAR     68  65  90 CALM      29.82F FOG
OCEANSIDE AP   PTCLDY    69  63  81 CALM      29.81F
OCEANSIDE HBR    N/A     71  67  86 CALM      29.85S
VISTA            N/A     69  64  84 CALM      29.81S
CARLSBAD       CLEAR     70  66  87 CALM      29.82F
DEL MAR          N/A     69  65  88 CALM      29.85S
LA JOLLA SCRIP   N/A     68  65  89 SE1       29.82S
FALLBROOK        N/A     68  67  96 CALM      29.81S
ESCONDIDO        N/A     71  65  81 CALM      29.84S
SAN MARCOS       N/A     69  60  73 CALM      29.85S
POWAY            N/A     70  63  79 CALM      29.82F

$$

EAST SAN DIEGO COUNTY

CITY           SKY/WX    TMP DP  RH WIND       PRES   REMARKS
RAMONA         CLEAR     67  61  81 W3        29.86S
SANTEE LAKES     N/A     69  64  83 CALM      29.81S
LA MESA          N/A     67  63  87 CALM      29.75S
JAMUL            N/A     66  63  90 CALM      29.80F
DESCANSO N       N/A     71  53  52 N6        29.69S
MT. LAGUNA OBS   N/A     76  44  31 NW3       29.73F
CAMPO            N/A     70  56  61 NE5       29.89S

$$

ORANGE COUNTY AND THE LOS ANGELES BASIN

CITY           SKY/WX    TMP DP  RH WIND       PRES   REMARKS
JOHN WAYNE AP  CLEAR     71  66  84 S7        29.82F
LAGUNA BEACH     N/A    N/A N/A N/A S3        29.77F
LAKE FOREST FR   N/A     69  63  81 CALM      29.68F
HUNTINGTON BCH   N/A     71  68  90 W3        29.83F
LOS ALAMITOS   FAIR      70  66  88 SW5       29.82S
FULLERTON      PTCLDY    72  66  81 CALM      29.81F
LONG BEACH     CLEAR     71  67  87 S3        29.82F
L.A. AP        CLEAR     70  62  76 CALM      29.82F
L.A. DOWNTOWN  CLEAR     71  62  73 CALM      29.82S

$$

THE INLAND EMPIRE

CITY           SKY/WX    TMP DP  RH WIND       PRES   REMARKS
CORONA         CLEAR     72  66  81 W7        29.83S
CHINO          CLEAR     74  63  68 W6        29.84S
ONTARIO        PTCLDY    75  60  59 W8        29.83F
SAN BERNARDINO FAIR      80  59  48 SW7       29.84S
RIVERSIDE AP   CLEAR     76  60  57 CALM      29.83F
MORENO VALLEY    N/A     78  63  59 CALM      27.97F
MARCH ARB      CLEAR     76  59  56 W3        29.86S
HORSETHIEF CYN   N/A     75  59  57 CALM      29.81F
PERRIS           N/A     76  59  56 CALM      29.86S
HEMET EAST       N/A     77  57  50 CALM      29.68F
FRENCH VALLEY  FAIR      72  57  60 CALM      29.86S
TEMECULA         N/A     73  64  74 CALM      29.80S

$$

SAN BERNARDINO AND RIVERSIDE COUNTY MOUNTAINS

CITY           SKY/WX    TMP DP  RH WIND       PRES   REMARKS
BIG BEAR AP    CLEAR     59  45  58 CALM      30.25F
PINE COVE        N/A     75  50  41 N1        29.72F

$$

SOUTHERN DESERT INCLUDING THE COACHELLA VALLEY

CITY           SKY/WX    TMP DP  RH WIND       PRES   REMARKS
PALM SPRINGS   CLEAR     97  60  29 NE6       29.73R HX  97
THOUSAND PALMS   N/A     95  75  52 SE7       29.67R HX 106
PALM DESERT      N/A     94  75  52 CALM        N/A  HX 106
THERMAL        CLEAR     93  73  52 S6        29.65R HX 102
BLYTHE         HAZE      93  67  42 SE37G47   29.76R VSB 1/2 HX  96
IMPERIAL AP    CLEAR     92  75  57 SE15      29.64S HX 103
EL CENTRO NAS  CLEAR     88  73  61 SE9       29.66R HX  95
YUMA AZ        BLWGDUST  93  65  39 E26G41    29.76  VSB 1/4 HX  95
MEXICALI       CLEAR     86  75  70 E15       29.68R HX  95

$$

UPPER DESERT

CITY           SKY/WX    TMP DP  RH WIND       PRES   REMARKS
VICTORVILLE AP CLEAR     84  46  26 CALM      29.91S
HESPERIA         N/A     80  55  41 W3        29.80F
PALMDALE       CLEAR     87  46  24 SW15      29.88F
LANCASTER      CLEAR     87  44  22 W12       29.86S
EDWARDS AFB    CLEAR     84  47  27 SW13      29.83F
DAGGETT        CLEAR     94  45  18 W12       29.79F
29 PALMS N     CLEAR     94  44  17 W9        29.87R
NEEDLES        CLOUDY   106  64  25 S12       29.68R THUNDER HX 109

$$

REGIONAL REPORTS

CITY           SKY/WX    TMP DP  RH WIND       PRES   REMARKS
SANTA BARBARA  CLEAR     64  62  93 SE7       29.80R
SANDBERG       CLEAR     85  36  17 NW12      30.08S
LAS VEGAS NV   MOCLDY    99  46  16 CALM      29.78S HX  95
PHOENIX AZ     CLOUDY    86  63  45 VRB7      29.83F
TIJUANA        PTCLDY    68  61  77 NW5       29.86S
ENSENADA NW      N/A     69  32  25 CALM      29.80S

$$

OFFSHORE ISLANDS

CITY           SKY/WX    TMP DP  RH WIND       PRES   REMARKS
CATALINA ARPT  CLEAR     71  52  50 SE3       29.87F
SAN NICOLAS IS FAIR      66  32  28 W5        29.83R

$$

MARINE AND OFFSHORE BUOY REPORTS

STATION/POSITION SKY/WX   TEMP    WIND        PRES    SWELL
                          AIR SEA DIR/SP/G            HT/PER/DIR
                          (F)     (DEG/KT/KT) (MB)    (FT/S/D)
TANNER BANKS               62 65  300/ 10/ 12 1010.7    5/310/10
S CLEMENTE BASIN           66 69  250/  4/  6 1010.2    3/280/ 6
SAN NICOLAS IS.               63                N/A     2/310/11
SO. S. ROSA ISLA           61 66  300/ 17/ 19 1009.3    3/320/10
W. S. BARBARA CH           58 61  310/ 21/ 25 1008.7    3/320/10
M. S. BARBARA CH                  240/ 14/ 16 1009.3R
S. MONICA BASIN            69 72  220/  4/  6 1009.1R
S PEDRO CHANNEL               72                N/A     2/160/12
OCEANSIDE OFFSHR                                N/A     2/210/15
TORREY PINES OTR                                N/A     2/220/15
LA JOLLA 1                 70 67  160/  3/  5 1009.9F
SAN DIEGO BAY                 79              1010.4F
POINT LOMA SOUTH              74                N/A     2/210/14

$$




USA.gov is the U.S. government's official web portal to all federal, state and local government web resources and services.